Weather in Donskoye

Russia / Kaliningrad Oblast     54°27′08″N   21°44′42″E
temp.,
°C
wind,
m/s
gust,
m/s
humid.,
%
clouds,
%
prec.,
mm/h
press.,
hPa
HPBL,
m
14 april, wed
wed1423:00+1nw269459 0.0 1024143
02:00+1nw269798 0.0 1023170
05:00+1nnw249598 0.0 1022150
08:00+3nnw3582100 0.0 1022374
11:00+7n4557100 0.0 10221027
14:00+8n5748100 0.0 10211484
17:00+8n5959100 0.0 10201649
20:00+5n2672100 0.1 1021206
15 april, thu
thu1523:00+3nne61293100 0.4 1021763
02:00+2nne71497100 1.9 1020739
05:00+3nne61394100 0.6 1020806
08:00+4ne71392100 0.9 1020767
11:00+4ne71487100 0.3 1021731
14:00+6ne61287100 0.4 1021621
17:00+7ne51179100 0.1 1022729
20:00+7ne5137599 0.1 1022749
16 april, fri
fri1623:00+5nne398189 0.0 1022325
02:00+5nne41173100 0.0 1021478
05:00+4nne51074100 0.0 1021523
08:00+4nne51083100 0.1 1021571
11:00+4nne51087100 0.1 1021536
14:00+8ne6882100 0.2 1021787
17:00+8ne5983100 0.0 1021701
20:00+8ne41092100 0.2 1022598
17 april, sat
sat1723:00+7ne4991100 0.0 1022527
02:00+7ne499297 0.0 1022424
05:00+7ne4992100 0.0 1022446
08:00+7ne4989100 0.1 1023508
11:00+8ene468796 0.0 1023467
14:00+12e3772100 0.1 10231172
17:00+13ene476980 0.5 1023800
20:00+9ene4128962 0.8 1024334
18 april, sun
sun1823:00+7ene41095100 0.0 1024249
02:00+7ene3896100 0.1 1023235
05:00+8ne31097100 1.3 1022477
08:00+8ene3697100 4.5 1022352
11:00+8e4896100 3.2 1023389
14:00+9e4692100 4.1 1023423
17:00+11ese468345 0.1 1023654
20:00+9e269295 0.1 1024192